| time (UTC) | temp C | wind direction | speed KPH | gust KPH | rain 1hr cm | rain 24hr cm | rain mn cm | humidity % | barometer mb |
| 20260504234811 | 23 | 155 | 0.0 | 3.2 | 0.00 | 0.00 | 0.00 | 50 | 1011.9 |
| 20260504234316 | 23 | 162 | 0.0 | 3.2 | 0.00 | 0.00 | 0.00 | 50 | 1011.9 |
| 20260504233819 | 23 | 165 | 0.0 | 3.2 | 0.00 | 0.00 | 0.00 | 49 | 1011.9 |
| 20260504233323 | 23 | 166 | 1.6 | 4.8 | 0.00 | 0.00 | 0.00 | 49 | 1011.9 |
| 20260504232811 | 23 | 176 | 1.6 | 4.8 | 0.00 | 0.00 | 0.00 | 48 | 1011.9 |
| 20260504232317 | 23 | 159 | 0.0 | 4.8 | 0.00 | 0.00 | 0.00 | 48 | 1011.9 |
| 20260504231820 | 23 | 145 | 0.0 | 6.4 | 0.00 | 0.00 | 0.00 | 48 | 1012.1 |
| 20260504231324 | 23 | 211 | 1.6 | 6.4 | 0.00 | 0.00 | 0.00 | 48 | 1012.1 |
| 20260504230827 | 23 | 173 | 1.6 | 4.8 | 0.00 | 0.00 | 0.00 | 47 | 1012.1 |
| 20260504230309 | 23 | 169 | 1.6 | 4.8 | 0.00 | 0.00 | 0.00 | 47 | 1012.1 |
| 20260504225815 | 23 | 190 | 1.6 | 6.4 | 0.00 | 0.00 | 0.00 | 47 | 1012.1 |
| 20260504225318 | 23 | 168 | 3.2 | 6.4 | 0.00 | 0.00 | 0.00 | 46 | 1012.1 |
| 20260504224822 | 23 | 157 | 3.2 | 6.4 | 0.00 | 0.00 | 0.00 | 46 | 1012.2 |
| 20260504224346 | 23 | 153 | 1.6 | 8.0 | 0.00 | 0.00 | 0.00 | 46 | 1012.2 |
| 20260504223849 | 23 | 184 | 3.2 | 14.5 | 0.00 | 0.00 | 0.00 | 49 | 1012.2 |
| 20260504223310 | 23 | 122 | 6.4 | 14.5 | 0.00 | 0.00 | 0.00 | 49 | 1012.2 |
| 20260504222819 | 23 | 130 | 3.2 | 8.0 | 0.00 | 0.00 | 0.00 | 46 | 1012.2 |
| 20260504222321 | 23 | 130 | 0.0 | 4.8 | 0.00 | 0.00 | 0.00 | 47 | 1012.2 |
| 20260504221824 | 23 | 171 | 1.6 | 6.4 | 0.00 | 0.00 | 0.00 | 47 | 1012.6 |
| 20260504221328 | 23 | 153 | 1.6 | 11.3 | 0.00 | 0.00 | 0.00 | 48 | 1012.6 |
| 20260504220831 | 23 | 115 | 1.6 | 11.3 | 0.00 | 0.00 | 0.00 | 47 | 1012.6 |
| 20260504220313 | 23 | 126 | 1.6 | 9.7 | 0.00 | 0.00 | 0.00 | 47 | 1012.7 |
| 20260504215815 | 23 | 159 | 4.8 | 9.7 | 0.00 | 0.00 | 0.00 | 45 | 1012.7 |
| 20260504215318 | 24 | 146 | 1.6 | 9.7 | 0.00 | 0.00 | 0.00 | 46 | 1012.7 |
| 20260504214822 | 24 | 208 | 3.2 | 9.7 | 0.00 | 0.00 | 0.00 | 46 | 1012.6 |
| 20260504214345 | 24 | 146 | 3.2 | 8.0 | 0.00 | 0.00 | 0.00 | 46 | 1012.6 |
| 20260504213828 | 24 | 161 | 3.2 | 9.7 | 0.00 | 0.00 | 0.00 | 45 | 1012.6 |
| 20260504213312 | 24 | 142 | 4.8 | 9.7 | 0.00 | 0.00 | 0.00 | 45 | 1012.7 |
| 20260504212836 | 24 | 113 | 3.2 | 6.4 | 0.00 | 0.00 | 0.00 | 45 | 1012.7 |
| 20260504212319 | 24 | 176 | 1.6 | 6.4 | 0.00 | 0.00 | 0.00 | 45 | 1012.7 |
| 20260504211808 | 24 | 220 | 1.6 | 6.4 | 0.00 | 0.00 | 0.00 | 45 | 1012.7 |
| 20260504211311 | 24 | 171 | 0.0 | 6.4 | 0.00 | 0.00 | 0.00 | 45 | 1012.7 |
| 20260504210817 | 24 | 134 | 3.2 | 12.9 | 0.00 | 0.00 | 0.00 | 44 | 1012.7 |
| 20260504210320 | 24 | 171 | 8.0 | 12.9 | 0.00 | 0.00 | 0.00 | 44 | 1012.8 |
| 20260504205823 | 24 | 150 | 3.2 | 9.7 | 0.00 | 0.00 | 0.00 | 43 | 1012.8 |
| 20260504205326 | 24 | 165 | 3.2 | 9.7 | 0.00 | 0.00 | 0.00 | 43 | 1012.8 |
| 20260504204808 | 24 | 154 | 3.2 | 8.0 | 0.00 | 0.00 | 0.00 | 43 | 1013.2 |
| 20260504204312 | 24 | 166 | 1.6 | 6.4 | 0.00 | 0.00 | 0.00 | 44 | 1013.2 |
| 20260504203815 | 24 | 111 | 3.2 | 8.0 | 0.00 | 0.00 | 0.00 | 44 | 1013.2 |
| 20260504203322 | 24 | 110 | 1.6 | 8.0 | 0.00 | 0.00 | 0.00 | 43 | 1013.3 |
| 20260504202809 | 23 | 154 | 1.6 | 4.8 | 0.00 | 0.00 | 0.00 | 43 | 1013.3 |
| 20260504202314 | 24 | 175 | 3.2 | 6.4 | 0.00 | 0.00 | 0.00 | 42 | 1013.3 |
| 20260504201818 | 24 | 192 | 1.6 | 6.4 | 0.00 | 0.00 | 0.00 | 40 | 1013.8 |
| 20260504201320 | 24 | 163 | 3.2 | 6.4 | 0.00 | 0.00 | 0.00 | 41 | 1013.8 |
| 20260504200823 | 24 | 165 | 1.6 | 4.8 | 0.00 | 0.00 | 0.00 | 41 | 1013.8 |
| 20260504200306 | 24 | 173 | 1.6 | 8.0 | 0.00 | 0.00 | 0.00 | 40 | 1014.1 |
| 20260504195813 | 24 | 158 | 1.6 | 8.0 | 0.00 | 0.00 | 0.00 | 40 | 1014.1 |
| 20260504195316 | 24 | 126 | 1.6 | 8.0 | 0.00 | 0.00 | 0.00 | 42 | 1014.1 |
| 20260504194819 | 24 | 210 | 0.0 | 8.0 | 0.00 | 0.00 | 0.00 | 41 | 1014.3 |
| 20260504194322 | 24 | 192 | 1.6 | 8.0 | 0.00 | 0.00 | 0.00 | 41 | 1014.3 |
| 20260504193825 | 24 | 202 | 0.0 | 6.4 | 0.00 | 0.00 | 0.00 | 40 | 1014.3 |
| 20260504193312 | 25 | 149 | 1.6 | 6.4 | 0.00 | 0.00 | 0.00 | 41 | 1014.3 |
| 20260504192819 | 25 | 157 | 3.2 | 6.4 | 0.00 | 0.00 | 0.00 | 41 | 1014.3 |
| 20260504192323 | 25 | 196 | 1.6 | 3.2 | 0.00 | 0.00 | 0.00 | 40 | 1014.3 |
| 20260504191809 | 25 | 333 | 0.0 | 9.7 | 0.00 | 0.00 | 0.00 | 42 | 1014.3 |
| 20260504191333 | 24 | 28 | 3.2 | 9.7 | 0.00 | 0.00 | 0.00 | 43 | 1014.3 |
| 20260504190816 | 24 | 174 | 3.2 | 6.4 | 0.00 | 0.00 | 0.00 | 42 | 1014.3 |
| 20260504190317 | 24 | 167 | 3.2 | 6.4 | 0.00 | 0.00 | 0.00 | 42 | 1014.6 |
| 20260504185842 | 24 | 164 | 1.6 | 9.7 | 0.00 | 0.00 | 0.00 | 42 | 1014.6 |
| 20260504185323 | 24 | 163 | 3.2 | 9.7 | 0.00 | 0.00 | 0.00 | 41 | 1014.6 |
| 20260504184827 | 24 | 201 | 1.6 | 4.8 | 0.00 | 0.00 | 0.00 | 41 | 1014.8 |
| 20260504184309 | 24 | 111 | 3.2 | 6.4 | 0.00 | 0.00 | 0.00 | 42 | 1014.8 |
| 20260504183812 | 24 | 200 | 0.0 | 6.4 | 0.00 | 0.00 | 0.00 | 41 | 1014.8 |
| 20260504183335 | 23 | 231 | 0.0 | 8.0 | 0.00 | 0.00 | 0.00 | 41 | 1014.9 |
| 20260504182818 | 23 | 182 | 3.2 | 9.7 | 0.00 | 0.00 | 0.00 | 40 | 1014.9 |
| 20260504182325 | 24 | 138 | 3.2 | 9.7 | 0.00 | 0.00 | 0.00 | 42 | 1014.9 |
| 20260504181809 | 24 | 153 | 1.6 | 8.0 | 0.00 | 0.00 | 0.00 | 40 | 1015.2 |
| 20260504181313 | 24 | 123 | 4.8 | 8.0 | 0.00 | 0.00 | 0.00 | 40 | 1015.2 |
| 20260504180817 | 23 | 164 | 1.6 | 4.8 | 0.00 | 0.00 | 0.00 | 43 | 1015.2 |
| 20260504180320 | 23 | 175 | 3.2 | 4.8 | 0.00 | 0.00 | 0.00 | 42 | 1015.2 |
| 20260504175823 | 23 | 204 | 1.6 | 4.8 | 0.00 | 0.00 | 0.00 | 40 | 1015.2 |
| 20260504175327 | 24 | 159 | 1.6 | 8.0 | 0.00 | 0.00 | 0.00 | 42 | 1015.2 |
| 20260504174810 | 24 | 163 | 1.6 | 8.0 | 0.00 | 0.00 | 0.00 | 44 | 1015.3 |
| 20260504174313 | 23 | 130 | 0.0 | 4.8 | 0.00 | 0.00 | 0.00 | 41 | 1015.3 |
| 20260504173816 | 23 | 174 | 0.0 | 4.8 | 0.00 | 0.00 | 0.00 | 43 | 1015.3 |
| 20260504173339 | 23 | 186 | 1.6 | 4.8 | 0.00 | 0.00 | 0.00 | 43 | 1015.2 |
| 20260504172841 | 23 | 200 | 0.0 | 4.8 | 0.00 | 0.00 | 0.00 | 43 | 1015.2 |
| 20260504172324 | 23 | 210 | 1.6 | 4.8 | 0.00 | 0.00 | 0.00 | 43 | 1015.2 |
| 20260504171811 | 23 | 139 | 1.6 | 6.4 | 0.00 | 0.00 | 0.00 | 45 | 1015.4 |
| 20260504171315 | 23 | 175 | 1.6 | 6.4 | 0.00 | 0.00 | 0.00 | 44 | 1015.4 |
| 20260504170819 | 23 | 151 | 3.2 | 4.8 | 0.00 | 0.00 | 0.00 | 45 | 1015.4 |
| 20260504170323 | 23 | 242 | 0.0 | 11.3 | 0.00 | 0.00 | 0.00 | 43 | 1015.2 |
| 20260504160325 | 23 | 166 | 1.6 | 8.0 | 0.00 | 0.00 | 0.00 | 42 | 1015.8 |
| 20260504150824 | 23 | 133 | 3.2 | 8.0 | 0.00 | 0.00 | 0.00 | 50 | 1015.8 |
| 20260504150328 | 23 | 200 | 1.6 | 6.4 | 0.00 | 0.00 | 0.00 | 46 | 1015.8 |
| 20260504141323 | 22 | 215 | 0.0 | 0.0 | 0.00 | 0.00 | 0.00 | 56 | 1015.8 |
| 20260504140847 | 21 | 215 | 0.0 | 0.0 | 0.00 | 0.00 | 0.00 | 58 | 1015.8 |
| 20260504140310 | 21 | 215 | 0.0 | 3.2 | 0.00 | 0.00 | 0.00 | 55 | 1015.8 |
| 20260504130326 | 18 | 49 | 0.0 | 0.0 | 0.00 | 0.00 | 0.00 | 74 | 1015.9 |
| 20260504120315 | 12 | 49 | 0.0 | 0.0 | 0.00 | 0.00 | 0.00 | 91 | 1015.2 |
| 20260504110313 | 11 | 49 | 0.0 | 0.0 | 0.00 | 0.00 | 0.00 | 91 | 1015.0 |
| 20260504100319 | 11 | 49 | 0.0 | 0.0 | 0.00 | 0.00 | 0.00 | 91 | 1015.4 |
| 20260504081838 | 12 | 314 | 0.0 | 0.0 | 0.00 | 0.00 | 0.00 | 89 | 1015.2 |
| 20260504081320 | 12 | 314 | 0.0 | 0.0 | 0.00 | 0.00 | 0.00 | 90 | 1015.2 |
| 20260504080822 | 12 | 314 | 0.0 | 0.0 | 0.00 | 0.00 | 0.00 | 89 | 1015.2 |
| 20260504080326 | 12 | 314 | 0.0 | 0.0 | 0.00 | 0.00 | 0.00 | 89 | 1015.3 |
| 20260504070348 | 12 | 314 | 0.0 | 0.0 | 0.00 | 0.00 | 0.00 | 88 | 1015.9 |
| 20260504050317 | 13 | 289 | 0.0 | 0.0 | 0.00 | 0.00 | 0.00 | 82 | 1017.0 |
| 20260504045820 | 14 | 289 | 0.0 | 0.0 | 0.00 | 0.00 | 0.00 | 82 | 1017.0 |
| 20260504045323 | 14 | 289 | 0.0 | 0.0 | 0.00 | 0.00 | 0.00 | 81 | 1017.0 |
| 20260504044849 | 14 | 289 | 0.0 | 0.0 | 0.00 | 0.00 | 0.00 | 81 | 1017.0 |
| 20260504044311 | 14 | 289 | 0.0 | 0.0 | 0.00 | 0.00 | 0.00 | 81 | 1017.0 |
| 20260504043837 | 14 | 289 | 0.0 | 0.0 | 0.00 | 0.00 | 0.00 | 81 | 1017.0 |
| 20260504043319 | 14 | 289 | 0.0 | 0.0 | 0.00 | 0.00 | 0.00 | 80 | 1017.0 |
| 20260504042825 | 15 | 289 | 0.0 | 3.2 | 0.00 | 0.00 | 0.00 | 79 | 1017.0 |
| 20260504042309 | 15 | 289 | 0.0 | 3.2 | 0.00 | 0.00 | 0.00 | 79 | 1017.0 |
| 20260504041820 | 15 | 289 | 0.0 | 0.0 | 0.00 | 0.00 | 0.00 | 78 | 1017.1 |
| 20260504041344 | 15 | 258 | 0.0 | 0.0 | 0.00 | 0.00 | 0.00 | 77 | 1017.1 |
| 20260504040827 | 15 | 258 | 0.0 | 1.6 | 0.00 | 0.00 | 0.00 | 77 | 1017.1 |
| 20260504040309 | 15 | 258 | 0.0 | 3.2 | 0.00 | 0.00 | 0.00 | 76 | 1017.0 |
| 20260504035813 | 16 | 258 | 0.0 | 3.2 | 0.00 | 0.00 | 0.00 | 75 | 1017.0 |
| 20260504035337 | 16 | 258 | 0.0 | 0.0 | 0.00 | 0.00 | 0.00 | 73 | 1017.0 |
| 20260504034819 | 16 | 258 | 0.0 | 0.0 | 0.00 | 0.00 | 0.00 | 72 | 1017.0 |
| 20260504034343 | 16 | 258 | 0.0 | 3.2 | 0.00 | 0.00 | 0.00 | 71 | 1017.0 |
| 20260504033825 | 16 | 258 | 0.0 | 3.2 | 0.00 | 0.00 | 0.00 | 71 | 1017.0 |
| 20260504033328 | 16 | 258 | 0.0 | 3.2 | 0.00 | 0.00 | 0.00 | 71 | 1017.3 |
| 20260504032811 | 16 | 261 | 0.0 | 4.8 | 0.00 | 0.00 | 0.00 | 72 | 1017.3 |
| 20260504032314 | 16 | 245 | 0.0 | 4.8 | 0.00 | 0.00 | 0.00 | 73 | 1017.3 |
| 20260504031817 | 16 | 231 | 0.0 | 0.0 | 0.00 | 0.00 | 0.00 | 73 | 1017.1 |
| 20260504031321 | 16 | 231 | 0.0 | 1.6 | 0.00 | 0.00 | 0.00 | 72 | 1017.1 |
| 20260504030845 | 16 | 231 | 0.0 | 1.6 | 0.00 | 0.00 | 0.00 | 73 | 1017.1 |
| 20260504030312 | 16 | 231 | 0.0 | 1.6 | 0.00 | 0.00 | 0.00 | 74 | 1016.9 |
| 20260504025816 | 16 | 276 | 0.0 | 0.0 | 0.00 | 0.00 | 0.00 | 73 | 1016.9 |
| 20260504025319 | 16 | 276 | 0.0 | 0.0 | 0.00 | 0.00 | 0.00 | 73 | 1016.9 |
| 20260504024822 | 16 | 276 | 0.0 | 0.0 | 0.00 | 0.00 | 0.00 | 72 | 1016.8 |
| 20260504024348 | 16 | 276 | 0.0 | 3.2 | 0.00 | 0.00 | 0.00 | 72 | 1016.8 |
| 20260504023811 | 16 | 276 | 0.0 | 3.2 | 0.00 | 0.00 | 0.00 | 72 | 1016.8 |
| 20260504023315 | 16 | 290 | 0.0 | 0.0 | 0.00 | 0.00 | 0.00 | 73 | 1016.7 |
| 20260504022818 | 16 | 290 | 0.0 | 0.0 | 0.00 | 0.00 | 0.00 | 73 | 1016.7 |
| 20260504022321 | 16 | 290 | 0.0 | 0.0 | 0.00 | 0.00 | 0.00 | 73 | 1016.7 |
| 20260504021824 | 16 | 290 | 0.0 | 0.0 | 0.00 | 0.00 | 0.00 | 73 | 1016.5 |
| 20260504021349 | 16 | 290 | 0.0 | 0.0 | 0.00 | 0.00 | 0.00 | 73 | 1016.5 |
| 20260504020831 | 16 | 290 | 0.0 | 0.0 | 0.00 | 0.00 | 0.00 | 71 | 1016.5 |
| 20260504020314 | 17 | 290 | 0.0 | 0.0 | 0.00 | 0.00 | 0.00 | 71 | 1016.4 |
| 20260504015822 | 17 | 290 | 0.0 | 0.0 | 0.00 | 0.00 | 0.00 | 71 | 1016.4 |
| 20260504015325 | 17 | 290 | 0.0 | 0.0 | 0.00 | 0.00 | 0.00 | 70 | 1016.4 |
| 20260504014810 | 17 | 290 | 0.0 | 0.0 | 0.00 | 0.00 | 0.00 | 69 | 1016.3 |
| 20260504014313 | 17 | 290 | 0.0 | 0.0 | 0.00 | 0.00 | 0.00 | 68 | 1016.3 |
| 20260504013817 | 17 | 290 | 0.0 | 0.0 | 0.00 | 0.00 | 0.00 | 67 | 1016.3 |
| 20260504013320 | 17 | 290 | 0.0 | 0.0 | 0.00 | 0.00 | 0.00 | 65 | 1016.3 |
| 20260504012824 | 18 | 290 | 0.0 | 0.0 | 0.00 | 0.00 | 0.00 | 64 | 1016.3 |
| 20260504012309 | 18 | 290 | 0.0 | 0.0 | 0.00 | 0.00 | 0.00 | 60 | 1016.3 |
| 20260504011812 | 18 | 290 | 0.0 | 0.0 | 0.00 | 0.00 | 0.00 | 60 | 1016.1 |
| 20260504011315 | 18 | 290 | 0.0 | 0.0 | 0.00 | 0.00 | 0.00 | 60 | 1016.1 |
| 20260504010818 | 19 | 290 | 0.0 | 0.0 | 0.00 | 0.00 | 0.00 | 60 | 1016.1 |
| 20260504010326 | 19 | 290 | 0.0 | 0.0 | 0.00 | 0.00 | 0.00 | 60 | 1016.0 |
| 20260504005810 | 20 | 290 | 0.0 | 0.0 | 0.00 | 0.00 | 0.00 | 59 | 1016.0 |
| 20260504005314 | 20 | 290 | 0.0 | 0.0 | 0.00 | 0.00 | 0.00 | 57 | 1016.0 |
| 20260504004838 | 20 | 290 | 0.0 | 3.2 | 0.00 | 0.00 | 0.00 | 55 | 1015.8 |
| 20260504004320 | 21 | 290 | 0.0 | 3.2 | 0.00 | 0.00 | 0.00 | 53 | 1015.8 |
| 20260504003823 | 21 | 290 | 0.0 | 0.0 | 0.00 | 0.00 | 0.00 | 54 | 1015.8 |
| 20260504003309 | 22 | 290 | 0.0 | 0.0 | 0.00 | 0.00 | 0.00 | 51 | 1015.8 |
| 20260504002812 | 22 | 290 | 0.0 | 0.0 | 0.00 | 0.00 | 0.00 | 50 | 1015.8 |
| 20260504002315 | 23 | 290 | 0.0 | 3.2 | 0.00 | 0.00 | 0.00 | 49 | 1015.8 |
| 20260504001838 | 23 | 290 | 0.0 | 3.2 | 0.00 | 0.00 | 0.00 | 45 | 1015.8 |
| 20260504001320 | 23 | 290 | 0.0 | 3.2 | 0.00 | 0.00 | 0.00 | 42 | 1015.8 |
| 20260504000824 | 23 | 67 | 0.0 | 3.2 | 0.00 | 0.00 | 0.00 | 41 | 1015.8 |
| 20260504000312 | 23 | 67 | 0.0 | 1.6 | 0.00 | 0.00 | 0.00 | 43 | 1015.7 |
| 20260503235815 | 23 | 67 | 1.6 | 3.2 | 0.00 | 0.00 | 0.00 | 42 | 1015.7 |
| 20260503235319 | 23 | 67 | 1.6 | 3.2 | 0.00 | 0.00 | 0.00 | 42 | 1015.7 |